Lexington Weather

Lexington, Massachusetts, USA

72°F
9/22/2021 2:23pm 
  • Lexington Conditions: Light rain, Mist, Overcast
  • Temperature: 71.8°F / 22.1°CColder 3.4°F than last hour.
  • Dew Point: 69.3°FIncreased 0.8°Fsince last hour.
  • Relative Humidity: 92%Increased 12.0% since last hour.
  • Wind: Wind from WSW WSW 2 mph, 10-min avg: 4 mph, gust: 13 mph
  • Barometer: 30.08 inFalling 0.02  inHg/hr Falling Slowly
  • Visibility: 2 miles
  • Rain Today: 0.00 in
  •   

Regional Weather Roundup
for Boston / Norton, MA

        
000
ASUS41 KBOX 152204
RWRBOX

REGIONAL WEATHER ROUNDUP
NATIONAL WEATHER SERVICE BOSTON/NORTON MA
600 PM EDT WED SEP 15 2021

NOTE:  "FAIR" INDICATES FEW OR NO CLOUDS BELOW 12,000 FEET WITH NO 
SIGNIFICANT WEATHER AND/OR OBSTRUCTIONS TO VISIBILITY.

MAZALL-152300-
EASTERN MASSACHUSETTS
  
CITY           SKY/WX    TMP DP  RH WIND       PRES   REMARKS
BOSTON         CLOUDY    82  68  62 S16       29.91R                  
BEVERLY        MOCLDY    83  66  56 SW18G24   29.90R                  
LAWRENCE       MOCLDY    82  69  64 SW13G23   29.91R                  
BEDFORD        MOCLDY    82  70  66 SW13      29.90R                  
BLUE HILL      NOT AVBL                                               
NORWOOD        PTCLDY    80  70  71 S10       29.92R                  
MARSHFIELD     PTCLDY    79  68  69 SW15G24   29.94R                  
PLYMOUTH       PTCLDY    76  69  79 SW12      29.97R                  
TAUNTON        PTCLDY    77  69  76 S12G21    29.96R                  
NEW BEDFORD    PTCLDY    76  71  85 SW12      29.96R                  
$$

MAZALL-152300-
CAPE COD AND THE ISLANDS
  
CITY           SKY/WX    TMP DP  RH WIND       PRES   REMARKS
FALMOUTH       CLEAR     77  68  73 SW23G31   29.98R                  
HYANNIS        PTCLDY    75  72  90 S14G25    29.98R                  
CHATHAM        PTCLDY    74  71  91 SW10G21   30.00R                  
PROVINCETOWN   MOCLDY    73  69  87 SW10      29.98R                  
NANTUCKET      MOCLDY    75  71  87 S16       30.01R                  
MARTHAS VNYRD  PTCLDY    74  72  93 S15       29.99R                  
$$
 
MAZALL-152300-
CENTRAL AND WESTERN MASSACHUSETTS
  
CITY           SKY/WX    TMP DP  RH WIND       PRES   REMARKS
WORCESTER      PTCLDY    78  67  68 SW9       29.96R                  
FITCHBURG      PTCLDY    82  67  60 S9        29.91R                  
ORANGE         CLOUDY    76  62  62 NW12      29.94R THUNDER          
SPRINGFIELD    PTSUNNY   82  69  63 S6        29.90R                  
WESTFIELD      MOSUNNY   82  72  71 S9        29.91R                  
NORTH ADAMS    CLOUDY    68  66  93 CALM      29.96R                  
PITTSFIELD     CLOUDY    66  64  93 SE5       29.97R                  
$$
 
RIZALL-152300-
RHODE ISLAND
  
CITY           SKY/WX    TMP DP  RH WIND       PRES   REMARKS
PROVIDENCE     MOCLDY    79  70  74 S13       29.95S                  
NEWPORT        PTCLDY    73  70  90 S10G18    29.97S                  
BLOCK ISLAND   PTCLDY    73  69  87 SW16G23   29.98S                  
SMITHFIELD     PTCLDY    77  69  76 VRB7      29.96R                  
WESTERLY       PTCLDY    73  71  93 SW12      29.97R                  
$$
 
CTZALL-152300-
CONNECTICUT
  
CITY           SKY/WX    TMP DP  RH WIND       PRES   REMARKS
BRADLEY INTL   PTSUNNY   82  70  66 S14       29.91R                  
HARTFORD       MOSUNNY   83  67  58 S14G23    29.91R                  
BRIDGEPORT     MOSUNNY   80  71  74 S14       29.93R                  
DANBURY        SUNNY     82  69  64 S7        29.94R                  
GROTON         PTCLDY    75  71  87 SW14      29.95S                  
NEW HAVEN      MOSUNNY   80  72  76 S10       29.94R                  
CHESTER        FAIR      79  72  78 VRB7G18   29.96S                  
MERIDEN        MOSUNNY   80  67  64 S13       29.93R                  
WILLIMANTIC    PTCLDY    79  68  69 S13       29.94R                  
OXFORD         MOSUNNY   79  70  74 SW9G17    29.97R                  
$$

MEZ002-015-021-024-NHZ003-005-008-011-012-014-VTZ005-008-152300-
NORTHERN NEW ENGLAND
  
CITY           SKY/WX    TMP DP  RH WIND       PRES   REMARKS
PORTLAND ME    CLOUDY    73  68  84 S8        29.88R                  
BANGOR ME      CLOUDY    69  67  93 S8        29.89S                  
CONCORD NH     LGT RAIN  68  64  87 VRB3      29.90S                  
MANCHESTER NH  MOCLDY    80  62  54 W15G24    29.89R THUNDER          
NASHUA NH      MOCLDY    81  74  79 CALM      29.90R                  
PORTSMOUTH NH  MOCLDY    81  68  64 S7        29.87S                  
JAFFREY NH     TSTM      66  66 100 S7        29.98R FOG              
KEENE NH       MOCLDY    68  67  96 S3        29.95R                  
BURLINGTON VT  LGT RAIN  68  64  87 CALM      29.93R                  
MT. WASHINGTON FOG       48  48 100 W52         N/A  VSB 0            
$$

NYZ052-076-152300-
EASTERN NEW YORK
  
CITY           SKY/WX    TMP DP  RH WIND       PRES   REMARKS
ALBANY         LGT RAIN  67  67 100 SW7       29.97R                  
NEW YORK CITY  PTSUNNY   82  69  64 S9        29.91R                  
$$
 
ANZALL-152300-
MARINE OBSERVATIONS
  
STATION/POSITION TIME  TEMP    WIND        PRES    VSBY  WAVE
                       AIR SEA DIR/SP/G                  HT/PER
                 (UTC) (F)     (DEG/KT/KT) (MB)    (MI)  (FT/S)
BOSTON BUOY      2140      66  200/ 14/ 19 1013.2R
BUZZARDS BAY     2100          200/ 23/ 25 1015.3R
NANTUCKET SOUND  2150   74 72  200/ 17/ 21 1015.3R         2/ 3
MASS BAY-STELLWA 2104   71     190/ 14/ 16 1011.8R  1 7/8  3/ 5
ISLE OF SHOALS   2100   73     170/ 20/ 21 1010.9R
S OF BLOCK IS    2126      70                N/A           4/ 5
$$

......................KEY.........................
  SKY/WX - SKY CONDITION/PRESENT WEATHER
  TMP    - TEMPERATURE IN FAHRENHEIT
  DWPT   - DEWPOINT IN FAHRENHEIT
  RH     - RELATIVE HUMIDITY IN PERCENT
  WIND   - DIRECTION AND SPEED IN MPH
  PRES   - MEAN SEA LEVEL PRESSURE IN INCHES OF HG
  WCI    - WIND CHILL INDEX
  VSB    - VISIBILITY IN MILES
  HX     - HEAT INDEX
  TC     - TEMPERATURE IN CELSIUS
  VRB    - VARIABLE WIND DIRECTION
  N/A    - NOT AVAILABLE
  
      

Other recent Regional Weather Roundups

Wed Sep 22, 2:04pm

Wed Sep 22, 1:04pm

Wed Sep 22, 12:05pm

Wed Sep 22, 11:04am

Wed Sep 22, 10:04am

Wed Sep 22, 9:04am

Wed Sep 22, 8:04am

Wed Sep 22, 7:04am

Wed Sep 22, 6:04am

Wed Sep 22, 5:04am

Wed Sep 22, 4:04am

Wed Sep 22, 3:04am

Wed Sep 22, 2:04am

Wed Sep 22, 1:04am

Wed Sep 22, 12:04am

Tue Sep 21, 11:04pm

Tue Sep 21, 10:04pm

Tue Sep 21, 9:04pm

Tue Sep 21, 8:04pm

Tue Sep 21, 7:04pm

Tue Sep 21, 6:04pm

Tue Sep 21, 5:04pm

Tue Sep 21, 4:04pm

Tue Sep 21, 3:04pm

Tue Sep 21, 2:04pm

Tue Sep 21, 1:04pm

Tue Sep 21, 12:04pm

Tue Sep 21, 11:04am

Tue Sep 21, 10:04am

Tue Sep 21, 9:04am

Tue Sep 21, 8:04am

Tue Sep 21, 7:04am

Tue Sep 21, 6:04am

Tue Sep 21, 5:04am

Tue Sep 21, 4:04am

Tue Sep 21, 3:04am

Tue Sep 21, 2:04am

Tue Sep 21, 1:04am

Tue Sep 21, 12:04am

Mon Sep 20, 11:04pm

Mon Sep 20, 10:04pm

Mon Sep 20, 9:04pm

Mon Sep 20, 8:04pm

Mon Sep 20, 7:04pm

Mon Sep 20, 6:04pm

Mon Sep 20, 5:04pm

Mon Sep 20, 4:04pm

Mon Sep 20, 3:04pm

Mon Sep 20, 2:04pm

Mon Sep 20, 1:04pm

Mon Sep 20, 12:04pm

Mon Sep 20, 11:04am

Mon Sep 20, 10:04am

Mon Sep 20, 9:04am

Mon Sep 20, 7:04am

Mon Sep 20, 6:04am

Mon Sep 20, 5:04am

Mon Sep 20, 4:04am

Mon Sep 20, 3:04am

Mon Sep 20, 2:04am

Mon Sep 20, 1:04am

Mon Sep 20, 12:04am

Sun Sep 19, 11:04pm

Sun Sep 19, 10:04pm

Sun Sep 19, 9:04pm

Sun Sep 19, 8:04pm

Sun Sep 19, 7:04pm

Sun Sep 19, 6:04pm

Sun Sep 19, 5:04pm

Sun Sep 19, 4:04pm

Sun Sep 19, 3:04pm

Sun Sep 19, 2:05pm

Sun Sep 19, 1:04pm

Sun Sep 19, 12:04pm

Sun Sep 19, 11:04am

Sun Sep 19, 10:05am

Sun Sep 19, 9:04am

Sun Sep 19, 8:04am

Sun Sep 19, 7:04am

Sun Sep 19, 6:04am

Sun Sep 19, 5:04am

Sun Sep 19, 4:04am

Sun Sep 19, 3:04am

Sun Sep 19, 2:04am

Sun Sep 19, 1:04am

Sun Sep 19, 12:04am

Sat Sep 18, 11:05pm

Sat Sep 18, 10:04pm

Sat Sep 18, 9:04pm

Sat Sep 18, 8:04pm

Sat Sep 18, 7:04pm

Sat Sep 18, 6:04pm

Sat Sep 18, 5:04pm

Sat Sep 18, 4:04pm

Sat Sep 18, 3:04pm

Sat Sep 18, 2:04pm

Sat Sep 18, 1:04pm

Sat Sep 18, 12:04pm

Sat Sep 18, 11:04am

Sat Sep 18, 10:04am

Sat Sep 18, 9:04am

Sat Sep 18, 8:04am

Sat Sep 18, 7:04am

Sat Sep 18, 6:04am

Sat Sep 18, 5:04am

Sat Sep 18, 4:04am

Sat Sep 18, 3:04am

Sat Sep 18, 2:04am

Sat Sep 18, 1:04am

Sat Sep 18, 12:04am

Fri Sep 17, 11:04pm

Fri Sep 17, 10:04pm

Fri Sep 17, 9:04pm

Fri Sep 17, 8:04pm

Fri Sep 17, 7:04pm

Fri Sep 17, 6:04pm

Fri Sep 17, 5:04pm

Fri Sep 17, 4:04pm

Fri Sep 17, 3:04pm

Fri Sep 17, 2:04pm

Fri Sep 17, 1:04pm

Fri Sep 17, 12:05pm

Fri Sep 17, 11:04am

Fri Sep 17, 10:04am

Fri Sep 17, 9:04am

Fri Sep 17, 8:04am

Fri Sep 17, 7:04am

Fri Sep 17, 6:04am

Fri Sep 17, 5:04am

Fri Sep 17, 4:04am

Fri Sep 17, 3:04am

Fri Sep 17, 2:04am

Fri Sep 17, 1:04am

Fri Sep 17, 12:04am

Thu Sep 16, 11:04pm

Thu Sep 16, 10:04pm

Thu Sep 16, 9:04pm

Thu Sep 16, 8:04pm

Thu Sep 16, 7:04pm

Thu Sep 16, 6:04pm

Thu Sep 16, 5:04pm

Thu Sep 16, 4:04pm

Thu Sep 16, 3:04pm

Thu Sep 16, 2:04pm

Thu Sep 16, 1:05pm

Thu Sep 16, 12:04pm

Thu Sep 16, 11:05am

Thu Sep 16, 10:05am

Thu Sep 16, 9:04am

Thu Sep 16, 8:04am

Thu Sep 16, 7:04am

Thu Sep 16, 6:04am

Thu Sep 16, 5:04am

Thu Sep 16, 4:04am

Thu Sep 16, 3:04am

Thu Sep 16, 2:04am

Thu Sep 16, 1:04am

Thu Sep 16, 12:04am

Wed Sep 15, 11:04pm

Wed Sep 15, 10:04pm

Wed Sep 15, 9:04pm

Wed Sep 15, 8:04pm

Wed Sep 15, 7:04pm

Wed Sep 15, 5:05pm

Wed Sep 15, 4:04pm

Wed Sep 15, 3:04pm

Meta data:

ID: 3abc7666-2e2b-4c15-853b-e0653b8f4f2e
Link: https://api.weather.gov/products/3abc7666-2e2b-4c15-853b-e0653b8f4f2e